Time,TemperatureF,DewpointF,PressureIn,WindDirection,WindDirectionDegrees,WindSpeedMPH,WindSpeedGustMPH,Humidity,HourlyPrecipIn,Conditions,Clouds,dailyrainin,SoftwareType,DateUTC
2013-01-14 00:42:00,32.0,11.0,-100.00,East,90,10.0,18.0,41,-99.99,,,-99.99,,2013-01-14 08:42:00,
2013-01-14 00:50:00,31.0,10.0,-100.00,East,88,11.0,18.0,40,-99.99,,,-99.99,,2013-01-14 08:50:00,
2013-01-14 00:52:00,32.0,12.0,-100.00,East,89,11.0,17.0,43,-99.99,,,-99.99,,2013-01-14 08:52:00,
2013-01-14 01:02:00,32.0,13.0,-100.00,East,92,11.0,18.0,45,-99.99,,,-99.99,,2013-01-14 09:02:00,
2013-01-14 01:11:00,32.0,12.0,-100.00,East,95,12.0,19.0,42,-99.99,,,-99.99,,2013-01-14 09:11:00,
2013-01-14 01:22:00,31.0,10.0,-100.00,East,88,11.0,18.0,40,-99.99,,,-99.99,,2013-01-14 09:22:00,
2013-01-14 01:33:00,31.0,10.0,-100.00,East,88,11.0,18.0,40,-99.99,,,-99.99,,2013-01-14 09:33:00,
2013-01-14 01:40:00,30.0,9.0,-100.00,East,80,9.0,17.0,40,-99.99,,,-99.99,,2013-01-14 09:40:00,
2013-01-14 01:42:00,31.0,10.0,-100.00,East,88,11.0,18.0,40,-99.99,,,-99.99,,2013-01-14 09:42:00,
2013-01-14 02:02:00,31.0,10.0,-100.00,East,86,10.0,15.0,40,-99.99,,,-99.99,,2013-01-14 10:02:00,
2013-01-14 02:12:00,30.0,9.0,-100.00,East,80,9.0,17.0,40,-99.99,,,-99.99,,2013-01-14 10:12:00,
2013-01-14 02:22:00,30.0,9.0,-100.00,East,80,9.0,17.0,40,-99.99,,,-99.99,,2013-01-14 10:22:00,
2013-01-14 02:32:00,30.0,9.0,-100.00,East,80,9.0,17.0,40,-99.99,,,-99.99,,2013-01-14 10:32:00,
2013-01-14 03:02:00,30.0,7.0,-100.00,East,100,8.0,14.0,37,-99.99,,,-99.99,,2013-01-14 11:02:00,
2013-01-14 03:12:00,30.0,6.0,-100.00,East,89,9.0,15.0,36,-99.99,,,-99.99,,2013-01-14 11:12:00,
2013-01-14 03:22:00,30.0,6.0,-100.00,East,89,9.0,15.0,36,-99.99,,,-99.99,,2013-01-14 11:22:00,
2013-01-14 03:32:00,30.0,6.0,-100.00,East,89,9.0,15.0,36,-99.99,,,-99.99,,2013-01-14 11:32:00,
2013-01-14 03:42:00,30.0,5.0,-100.00,ENE,78,10.0,16.0,34,-99.99,,,-99.99,,2013-01-14 11:42:00,
2013-01-14 03:50:00,29.0,4.0,-100.00,ESE,106,7.0,14.0,34,-99.99,,,-99.99,,2013-01-14 11:50:00,
2013-01-14 03:53:00,29.0,4.0,-100.00,East,95,9.0,15.0,34,-99.99,,,-99.99,,2013-01-14 11:53:00,
2013-01-14 04:02:00,29.0,4.0,-100.00,East,95,9.0,15.0,34,-99.99,,,-99.99,,2013-01-14 12:02:00,
2013-01-14 04:12:00,29.0,4.0,-100.00,East,95,9.0,15.0,34,-99.99,,,-99.99,,2013-01-14 12:12:00,
2013-01-14 04:22:00,29.0,4.0,-100.00,ESE,106,7.0,14.0,34,-99.99,,,-99.99,,2013-01-14 12:22:00,
2013-01-14 04:33:00,29.0,4.0,-100.00,ESE,106,7.0,14.0,34,-99.99,,,-99.99,,2013-01-14 12:33:00,
2013-01-14 04:42:00,29.0,4.0,-100.00,ESE,106,7.0,14.0,34,-99.99,,,-99.99,,2013-01-14 12:42:00,
2013-01-14 05:03:00,28.0,5.0,-100.00,SSE,159,4.0,7.0,36,-99.99,,,-99.99,,2013-01-14 13:03:00,
2013-01-14 05:12:00,28.0,5.0,-100.00,SSE,159,5.0,7.0,36,-99.99,,,-99.99,,2013-01-14 13:12:00,
2013-01-14 05:22:00,28.0,5.0,-100.00,SSE,152,5.0,7.0,37,-99.99,,,-99.99,,2013-01-14 13:22:00,
2013-01-14 05:33:00,28.0,5.0,-100.00,South,174,4.0,8.0,37,-99.99,,,-99.99,,2013-01-14 13:33:00,
2013-01-14 05:40:00,26.0,6.0,-100.00,SSE,147,5.0,8.0,41,-99.99,,,-99.99,,2013-01-14 13:40:00,
2013-01-14 05:43:00,28.0,5.0,-100.00,South,174,4.0,8.0,37,-99.99,,,-99.99,,2013-01-14 13:43:00,
2013-01-14 05:52:00,28.0,6.0,-100.00,SSE,149,5.0,7.0,38,-99.99,,,-99.99,,2013-01-14 13:52:00,
2013-01-14 06:02:00,27.0,6.0,-100.00,SE,143,6.0,8.0,40,-99.99,,,-99.99,,2013-01-14 14:02:00,
2013-01-14 06:12:00,26.0,6.0,-100.00,SSE,147,5.0,8.0,41,-99.99,,,-99.99,,2013-01-14 14:12:00,
2013-01-14 06:22:00,26.0,6.0,-100.00,SSE,147,5.0,8.0,41,-99.99,,,-99.99,,2013-01-14 14:22:00,
2013-01-14 06:32:00,26.0,6.0,-100.00,SSE,147,5.0,8.0,41,-99.99,,,-99.99,,2013-01-14 14:32:00,
2013-01-14 07:12:00,25.0,6.0,-100.00,SE,139,6.0,8.0,44,-99.99,,,-99.99,,2013-01-14 15:12:00,
2013-01-14 07:20:00,25.0,6.0,-100.00,SE,136,6.0,8.0,44,-99.99,,,-99.99,,2013-01-14 15:20:00,
2013-01-14 07:23:00,25.0,6.0,-100.00,SE,139,5.0,8.0,44,-99.99,,,-99.99,,2013-01-14 15:23:00,
2013-01-14 07:33:00,25.0,6.0,-100.00,SE,137,6.0,8.0,44,-99.99,,,-99.99,,2013-01-14 15:33:00,
2013-01-14 07:42:00,25.0,7.0,-100.00,SE,142,6.0,7.0,45,-99.99,,,-99.99,,2013-01-14 15:42:00,
2013-01-14 07:53:00,25.0,6.0,-100.00,SE,136,6.0,8.0,44,-99.99,,,-99.99,,2013-01-14 15:53:00,
2013-01-14 08:02:00,25.0,6.0,-100.00,SE,136,6.0,8.0,44,-99.99,,,-99.99,,2013-01-14 16:02:00,
2013-01-14 08:12:00,25.0,6.0,-100.00,SE,136,6.0,8.0,44,-99.99,,,-99.99,,2013-01-14 16:12:00,
2013-01-14 09:12:00,35.0,7.0,-100.00,East,90,7.0,10.0,31,-99.99,,,-99.99,,2013-01-14 17:12:00,
2013-01-14 09:22:00,36.0,8.0,-100.00,East,86,6.0,10.0,30,-99.99,,,-99.99,,2013-01-14 17:22:00,
2013-01-14 09:33:00,36.0,7.0,-100.00,East,94,9.0,14.0,29,-99.99,,,-99.99,,2013-01-14 17:33:00,
2013-01-14 09:42:00,37.0,7.0,-100.00,East,92,9.0,13.0,28,-99.99,,,-99.99,,2013-01-14 17:42:00,
2013-01-14 09:53:00,37.0,7.0,-100.00,East,92,8.0,12.0,28,-99.99,,,-99.99,,2013-01-14 17:53:00,
2013-01-14 10:02:00,38.0,7.0,-100.00,East,84,8.0,15.0,27,-99.99,,,-99.99,,2013-01-14 18:02:00,
2013-01-14 10:12:00,38.0,6.0,-100.00,East,88,9.0,14.0,26,-99.99,,,-99.99,,2013-01-14 18:12:00,
2013-01-14 10:22:00,38.0,5.0,-100.00,East,98,9.0,15.0,25,-99.99,,,-99.99,,2013-01-14 18:22:00,
2013-01-14 10:33:00,38.0,3.0,-100.00,East,97,8.0,14.0,22,-99.99,,,-99.99,,2013-01-14 18:33:00,
2013-01-14 10:42:00,39.0,2.0,-100.00,East,87,9.0,15.0,21,-99.99,,,-99.99,,2013-01-14 18:42:00,
2013-01-14 10:52:00,38.0,1.0,-100.00,ESE,109,9.0,15.0,20,-99.99,,,-99.99,,2013-01-14 18:52:00,
2013-01-14 11:02:00,39.0,-1.0,-100.00,East,100,9.0,16.0,18,-99.99,,,-99.99,,2013-01-14 19:02:00,
2013-01-14 11:12:00,40.0,-1.0,-100.00,East,83,5.0,11.0,17,-99.99,,,-99.99,,2013-01-14 19:12:00,
2013-01-14 11:22:00,40.0,-5.0,-100.00,NNW,341,6.0,15.0,14,-99.99,,,-99.99,,2013-01-14 19:22:00,
2013-01-14 11:32:00,39.0,-11.0,-100.00,NNW,332,10.0,16.0,11,-99.99,,,-99.99,,2013-01-14 19:32:00,
2013-01-14 11:42:00,39.0,-9.0,-100.00,NNW,335,12.0,18.0,12,-99.99,,,-99.99,,2013-01-14 19:42:00,
2013-01-14 11:52:00,40.0,-8.0,-100.00,NNW,345,8.0,15.0,12,-99.99,,,-99.99,,2013-01-14 19:52:00,
2013-01-14 12:03:00,40.0,-8.0,-100.00,NNW,334,9.0,13.0,12,-99.99,,,-99.99,,2013-01-14 20:03:00,
2013-01-14 12:12:00,40.0,-8.0,-100.00,NNW,328,4.0,10.0,12,-99.99,,,-99.99,,2013-01-14 20:12:00,
2013-01-14 12:22:00,41.0,-6.0,-100.00,ENE,58,4.0,10.0,13,-99.99,,,-99.99,,2013-01-14 20:22:00,
2013-01-14 12:33:00,41.0,-6.0,-100.00,NNW,345,4.0,11.0,13,-99.99,,,-99.99,,2013-01-14 20:33:00,
2013-01-14 12:42:00,41.0,-6.0,-100.00,ENE,71,6.0,13.0,13,-99.99,,,-99.99,,2013-01-14 20:42:00,
2013-01-14 12:52:00,41.0,-6.0,-100.00,East,87,8.0,16.0,13,-99.99,,,-99.99,,2013-01-14 20:52:00,
2013-01-14 13:02:00,41.0,-6.0,-100.00,East,89,7.0,14.0,13,-99.99,,,-99.99,,2013-01-14 21:02:00,
2013-01-14 13:12:00,41.0,-4.0,-100.00,ESE,104,8.0,13.0,14,-99.99,,,-99.99,,2013-01-14 21:12:00,
2013-01-14 13:22:00,41.0,-6.0,-100.00,East,79,5.0,12.0,13,-99.99,,,-99.99,,2013-01-14 21:22:00,
2013-01-14 13:32:00,43.0,-4.0,-100.00,NE,36,4.0,11.0,13,-99.99,,,-99.99,,2013-01-14 21:32:00,
2013-01-14 13:42:00,42.0,-7.0,-100.00,North,351,8.0,16.0,12,-99.99,,,-99.99,,2013-01-14 21:42:00,
2013-01-14 13:53:00,42.0,-7.0,-100.00,NNW,344,9.0,21.0,12,-99.99,,,-99.99,,2013-01-14 21:53:00,
2013-01-14 14:02:00,43.0,-4.0,-100.00,NNE,30,6.0,14.0,13,-99.99,,,-99.99,,2013-01-14 22:02:00,
2013-01-14 14:12:00,41.0,-4.0,-100.00,ENE,69,10.0,16.0,14,-99.99,,,-99.99,,2013-01-14 22:12:00,
2013-01-14 14:23:00,41.0,-4.0,-100.00,ENE,69,10.0,16.0,14,-99.99,,,-99.99,,2013-01-14 22:23:00,
2013-01-14 14:32:00,41.0,-4.0,-100.00,ENE,78,10.0,19.0,14,-99.99,,,-99.99,,2013-01-14 22:32:00,
2013-01-14 14:42:00,41.0,-3.0,-100.00,East,83,10.0,19.0,15,-99.99,,,-99.99,,2013-01-14 22:42:00,
2013-01-14 14:52:00,40.0,-4.0,-100.00,East,89,11.0,18.0,15,-99.99,,,-99.99,,2013-01-14 22:52:00,
2013-01-14 15:02:00,40.0,-4.0,-100.00,East,89,11.0,18.0,15,-99.99,,,-99.99,,2013-01-14 23:02:00,
2013-01-14 15:12:00,41.0,-3.0,-100.00,East,91,10.0,15.0,15,-99.99,,,-99.99,,2013-01-14 23:12:00,
2013-01-14 15:22:00,40.0,-4.0,-100.00,East,88,11.0,18.0,15,-99.99,,,-99.99,,2013-01-14 23:22:00,
2013-01-14 15:33:00,40.0,-4.0,-100.00,East,92,13.0,18.0,15,-99.99,,,-99.99,,2013-01-14 23:33:00,
2013-01-14 15:42:00,40.0,-3.0,-100.00,East,89,11.0,18.0,16,-99.99,,,-99.99,,2013-01-14 23:42:00,
2013-01-14 15:52:00,39.0,-5.0,-100.00,East,92,13.0,20.0,15,-99.99,,,-99.99,,2013-01-14 23:52:00,
2013-01-14 16:02:00,39.0,-3.0,-100.00,East,88,15.0,20.0,16,-99.99,,,-99.99,,2013-01-15 00:02:00,
2013-01-14 16:12:00,39.0,-3.0,-100.00,East,88,14.0,20.0,16,-99.99,,,-99.99,,2013-01-15 00:12:00,
2013-01-14 16:22:00,38.0,-4.0,-100.00,East,87,15.0,22.0,16,-99.99,,,-99.99,,2013-01-15 00:22:00,
2013-01-14 16:32:00,38.0,-4.0,-100.00,East,86,16.0,22.0,16,-99.99,,,-99.99,,2013-01-15 00:32:00,
2013-01-14 16:43:00,38.0,-3.0,-100.00,East,89,13.0,18.0,17,-99.99,,,-99.99,,2013-01-15 00:43:00,
2013-01-14 16:52:00,37.0,-4.0,-100.00,East,82,10.0,16.0,17,-99.99,,,-99.99,,2013-01-15 00:52:00,
2013-01-14 17:02:00,37.0,-4.0,-100.00,East,82,10.0,16.0,17,-99.99,,,-99.99,,2013-01-15 01:02:00,
2013-01-14 17:12:00,37.0,-5.0,-100.00,ENE,76,11.0,18.0,16,-99.99,,,-99.99,,2013-01-15 01:12:00,
2013-01-14 17:22:00,36.0,-5.0,-100.00,ENE,78,10.0,16.0,17,-99.99,,,-99.99,,2013-01-15 01:22:00,
2013-01-14 17:32:00,36.0,-5.0,-100.00,ENE,78,10.0,16.0,17,-99.99,,,-99.99,,2013-01-15 01:32:00,
2013-01-14 17:42:00,36.0,-5.0,-100.00,ENE,78,10.0,16.0,17,-99.99,,,-99.99,,2013-01-15 01:42:00,
2013-01-14 17:52:00,34.0,-4.0,-100.00,ENE,60,5.0,7.0,19,-99.99,,,-99.99,,2013-01-15 01:52:00,
2013-01-14 18:02:00,34.0,-4.0,-100.00,ENE,67,6.0,13.0,19,-99.99,,,-99.99,,2013-01-15 02:02:00,
2013-01-14 18:12:00,34.0,-4.0,-100.00,ENE,78,12.0,19.0,19,-99.99,,,-99.99,,2013-01-15 02:12:00,
2013-01-14 18:22:00,33.0,-5.0,-100.00,East,84,12.0,18.0,19,-99.99,,,-99.99,,2013-01-15 02:22:00,
2013-01-14 18:32:00,33.0,-4.0,-100.00,East,83,12.0,20.0,20,-99.99,,,-99.99,,2013-01-15 02:32:00,
2013-01-14 18:42:00,32.0,-4.0,-100.00,East,83,12.0,18.0,20,-99.99,,,-99.99,,2013-01-15 02:42:00,
2013-01-14 18:52:00,32.0,-6.0,-100.00,East,88,11.0,17.0,19,-99.99,,,-99.99,,2013-01-15 02:52:00,
2013-01-14 19:02:00,32.0,-6.0,-100.00,East,88,11.0,17.0,19,-99.99,,,-99.99,,2013-01-15 03:02:00,
2013-01-14 19:12:00,32.0,-7.0,-100.00,East,94,12.0,16.0,18,-99.99,,,-99.99,,2013-01-15 03:12:00,
2013-01-14 19:22:00,32.0,-7.0,-100.00,East,99,15.0,21.0,18,-99.99,,,-99.99,,2013-01-15 03:22:00,
2013-01-14 19:32:00,32.0,-7.0,-100.00,ESE,103,15.0,22.0,18,-99.99,,,-99.99,,2013-01-15 03:32:00,
2013-01-14 19:42:00,32.0,-7.0,-100.00,East,99,13.0,21.0,18,-99.99,,,-99.99,,2013-01-15 03:42:00,
2013-01-14 19:52:00,31.0,-7.0,-100.00,East,91,8.0,15.0,18,-99.99,,,-99.99,,2013-01-15 03:52:00,
2013-01-14 20:02:00,31.0,-7.0,-100.00,East,91,8.0,15.0,18,-99.99,,,-99.99,,2013-01-15 04:02:00,
2013-01-14 20:12:00,31.0,-7.0,-100.00,East,88,11.0,18.0,18,-99.99,,,-99.99,,2013-01-15 04:12:00,
2013-01-14 20:22:00,32.0,-7.0,-100.00,East,85,11.0,18.0,18,-99.99,,,-99.99,,2013-01-15 04:22:00,
2013-01-14 20:32:00,32.0,-7.0,-100.00,East,86,11.0,19.0,18,-99.99,,,-99.99,,2013-01-15 04:32:00,
2013-01-14 20:42:00,32.0,-7.0,-100.00,East,86,11.0,19.0,18,-99.99,,,-99.99,,2013-01-15 04:42:00,
2013-01-14 20:52:00,32.0,-7.0,-100.00,East,89,10.0,18.0,18,-99.99,,,-99.99,,2013-01-15 04:52:00,
2013-01-14 21:03:00,32.0,-7.0,-100.00,East,85,10.0,19.0,18,-99.99,,,-99.99,,2013-01-15 05:03:00,
2013-01-14 21:12:00,32.0,-7.0,-100.00,ENE,62,8.0,15.0,18,-99.99,,,-99.99,,2013-01-15 05:12:00,
2013-01-14 21:22:00,32.0,-7.0,-100.00,ENE,68,10.0,22.0,18,-99.99,,,-99.99,,2013-01-15 05:22:00,
2013-01-14 21:33:00,32.0,-7.0,-100.00,East,79,12.0,20.0,18,-99.99,,,-99.99,,2013-01-15 05:33:00,
2013-01-14 21:42:00,32.0,-7.0,-100.00,ENE,78,14.0,23.0,18,-99.99,,,-99.99,,2013-01-15 05:42:00,
2013-01-14 21:52:00,32.0,-7.0,-100.00,East,81,13.0,21.0,18,-99.99,,,-99.99,,2013-01-15 05:52:00,
2013-01-14 22:02:00,32.0,-7.0,-100.00,ENE,69,7.0,18.0,18,-99.99,,,-99.99,,2013-01-15 06:02:00,
2013-01-14 22:12:00,32.0,-7.0,-100.00,ENE,78,12.0,20.0,18,-99.99,,,-99.99,,2013-01-15 06:12:00,
2013-01-14 22:22:00,33.0,-6.0,-100.00,ENE,76,12.0,19.0,18,-99.99,,,-99.99,,2013-01-15 06:22:00,
2013-01-14 22:32:00,32.0,-7.0,-100.00,East,86,11.0,17.0,18,-99.99,,,-99.99,,2013-01-15 06:32:00,
2013-01-14 22:42:00,32.0,-7.0,-100.00,East,81,10.0,16.0,18,-99.99,,,-99.99,,2013-01-15 06:42:00,
2013-01-14 22:52:00,32.0,-7.0,-100.00,NE,48,6.0,13.0,18,-99.99,,,-99.99,,2013-01-15 06:52:00,
2013-01-14 23:02:00,31.0,-6.0,-100.00,NE,54,7.0,15.0,19,-99.99,,,-99.99,,2013-01-15 07:02:00,
2013-01-14 23:12:00,31.0,-6.0,-100.00,East,79,12.0,20.0,19,-99.99,,,-99.99,,2013-01-15 07:12:00,
2013-01-14 23:22:00,32.0,-6.0,-100.00,East,89,19.0,26.0,19,-99.99,,,-99.99,,2013-01-15 07:22:00,
2013-01-14 23:32:00,32.0,-7.0,-100.00,East,79,16.0,22.0,18,-99.99,,,-99.99,,2013-01-15 07:32:00,
2013-01-14 23:42:00,31.0,-6.0,-100.00,East,85,13.0,21.0,19,-99.99,,,-99.99,,2013-01-15 07:42:00,
2013-01-14 23:52:00,32.0,-7.0,-100.00,East,92,17.0,26.0,18,-99.99,,,-99.99,,2013-01-15 07:52:00,